Location: Colossi of Memnon
(25.7167°N, 32.6167°E)
Time: 04:56:21
(UTC+00:00)

Cosmos 407 Rocket - Pass Details

Date: 05 March 2021
Orbit: 744 x 786 km, 74.0° (Epoch: 19 April)

Event Time Altitude Azimuth Distance (km) Brightness Sun altitude
Rises 03:08:59 0° 204° (SSW) 3,224 6.5 -14.3°
Reaches altitude 10° 03:11:24 10° 209° (SSW) 2,293 5.7 -13.8°
Maximum altitude 03:16:29 55° 286° (WNW) 906 3.5 -12.6°
Drops below altitude 10° 03:21:33 10° 4° (N) 2,276 6.0 -11.5°
Sets 03:23:57 0° 9° (N) 3,197 6.8 -10.9°
